Simultaneous Nadir Overpasses (SNOs) Predictions

Prediction of SNOs between GOES-16 and NOAA-20 Satellite Orbit:

Table of predicted SNOs for the next 14.0 days since TLE Epoch: 7/25/2020
Index Date Time (GOES-16) GOES-16 Lat,Lon NOAA-20 Lat,Lon Distance(km) Time Diff (sec)
1 07/25/2020 18:26:36 0.02, -75.20 -0.09, -75.77 65.06 80
2 07/26/2020 18:10:31 0.02, -75.20 0.90, -71.23 451.70 80
3 07/28/2020 06:29:38 -0.02, -75.20 0.26, -76.50 148.55 80
4 07/29/2020 06:13:32 -0.02, -75.20 -0.73, -71.97 368.32 80
5 07/30/2020 18:32:48 0.03, -75.21 -0.46, -77.27 235.54 80
6 07/31/2020 18:16:43 0.03, -75.21 0.59, -72.75 281.68 80
7 08/02/2020 06:35:50 -0.04, -75.23 0.57, -78.02 317.66 80
8 08/03/2020 06:19:45 -0.03, -75.23 -0.43, -73.48 199.97 80
9 08/04/2020 18:39:00 0.04, -75.25 -0.76, -78.78 402.62 80
10 08/05/2020 18:22:55 0.04, -75.27 0.24, -74.25 115.68 80
11 08/07/2020 06:42:02 -0.04, -75.29 0.92, -79.52 481.93 80
